Weather History for Los Angeles Downtown, CA

Change the Weather History Date:

Friday, February 7, 2014

  Actual Average Record
Temperature  
Mean Temperature 57 °F 58 °F  
Max Temperature 63 °F 68 °F 89 °F (1996)
Min Temperature 50 °F 49 °F 32 °F (1883)
Degree Days  
Heating Degree Days 8 7  
Month to date heating degree days 62 49  
Since 1 July heating degree days 435 640  
Cooling Degree Days 0 0  
Month to date cooling degree days 0 0  
Year to date cooling degree days 17 9  
Growing Degree Days 6 (Base 50)    
Moisture  
Dew Point 49 °F    
Average Humidity 77    
Maximum Humidity 93    
Minimum Humidity 60    
Precipitation  
Precipitation 0.00 in 0.13 in 1.60 in (1993)
Month to date precipitation 0.23 0.86  
Year to date precipitation 0.23 3.98  
Since 1 July precipitation 1.20 8.30  
Sea Level Pressure  
Sea Level Pressure 30.13 in    
Wind  
Wind Speed 1 mph (West)    
Max Wind Speed 7 mph    
Max Gust Speed 13 mph    
Visibility 7 miles    
Events      
T = Trace of Precipitation, MM = Missing Value Source: NWS Daily Summary

Daily Weather History Graph

Daily Weather History Graph

Search for Another Location

Airport:

Trip Planner

Search our weather history database for the weather conditions in past years. The results will help you decide how hot, cold, wet, or windy it might be!

Date:

Astronomy

Feb. 07, 2014 Rise Set
Actual Time 6:45 AM PST 5:29 PM PST
Civil Twilight 6:19 AM PST 5:55 PM PST
Nautical Twilight 5:49 AM PST 6:25 PM PST
Astronomical Twilight 5:20 AM PST 6:54 PM PST
Moon 11:47 AM PST (2/7) 1:03 AM PST (2/7)
Length of Visible Light 11h 36m
Length of Day
10h 44m
First Quarter, 60% of the Moon is Illuminated
Feb 7
First Quarter
Feb 14
Full
Feb 22
Last Quarter
Mar 1
New
Mar 8
First Quarter

Hourly Weather History & Observations

Time (PST) Temp. Dew Point Humidity Pressure Visibility Wind Dir Wind Speed Gust Speed Precip Events Conditions
12:04 AM 53.6 °F 50.0 °F 88% 30.04 in 8.0 mi Calm Calm - N/A   Mostly Cloudy
12:47 AM 53.1 °F 50.0 °F 89% 30.04 in 7.0 mi Calm Calm - N/A   Overcast
1:05 AM 51.8 °F 50.0 °F 94% 30.05 in 6.0 mi Calm Calm - N/A   Overcast
1:11 AM 51.8 °F 50.0 °F 94% 30.05 in 6.0 mi Calm Calm - N/A   Overcast
1:47 AM 53.1 °F 50.0 °F 89% 30.05 in 6.0 mi Calm Calm - N/A   Overcast
2:47 AM 53.1 °F 50.0 °F 89% 30.05 in 5.0 mi Calm Calm - N/A   Overcast
3:16 AM 53.6 °F 50.0 °F 88% 30.05 in 5.0 mi Calm Calm - N/A   Overcast
3:47 AM 53.1 °F 50.0 °F 89% 30.06 in 5.0 mi Calm Calm - N/A   Overcast
4:47 AM 52.0 °F 48.9 °F 89% 30.06 in 3.0 mi Calm Calm - N/A   Partly Cloudy
5:47 AM 51.1 °F 48.0 °F 89% 30.09 in 3.0 mi Calm Calm - N/A   Clear
6:47 AM 50.0 °F 48.0 °F 93% 30.12 in 3.0 mi Calm Calm - N/A   Clear
7:02 AM 50.0 °F 48.2 °F 94% 30.12 in 2.5 mi Calm Calm - N/A   Clear
7:10 AM 50.0 °F 46.4 °F 87% 30.12 in 1.8 mi Calm Calm - N/A   Clear
7:22 AM 50.0 °F 48.2 °F 94% 30.12 in 2.0 mi Calm Calm - N/A   Scattered Clouds
7:47 AM 53.1 °F 50.0 °F 89% 30.14 in 2.5 mi Calm Calm - N/A   Overcast
7:52 AM 53.6 °F 50.0 °F 88% 30.14 in 3.0 mi Calm Calm - N/A   Overcast
8:47 AM 55.0 °F 48.9 °F 80% 30.16 in 6.0 mi Calm Calm - N/A   Haze
9:27 AM 57.2 °F 48.2 °F 72% 30.18 in 7.0 mi Calm Calm - N/A   Overcast
9:47 AM 57.0 °F 48.0 °F 72% 30.18 in 9.0 mi Calm Calm - N/A   Overcast
10:13 AM 59.0 °F 48.2 °F 67% 30.18 in 10.0 mi Calm Calm - N/A   Overcast
10:27 AM 59.0 °F 48.2 °F 67% 30.18 in 10.0 mi Calm Calm - N/A   Overcast
10:47 AM 60.1 °F 48.0 °F 64% 30.18 in 10.0 mi Calm Calm - N/A   Mostly Cloudy
10:50 AM 60.8 °F 48.2 °F 63% 30.18 in 10.0 mi Calm Calm - N/A   Scattered Clouds
11:47 AM 59.0 °F 46.9 °F 64% 30.16 in 10.0 mi Calm Calm - N/A   Overcast
12:47 PM 60.1 °F 46.0 °F 60% 30.14 in 10.0 mi Calm Calm - N/A   Mostly Cloudy
1:47 PM 62.1 °F 48.0 °F 60% 30.14 in 10.0 mi Variable 4.6 mph - N/A   Scattered Clouds
2:47 PM 61.0 °F 48.0 °F 62% 30.13 in 10.0 mi Variable 3.5 mph - N/A   Mostly Cloudy
3:47 PM 60.1 °F 48.0 °F 64% 30.12 in 10.0 mi West 3.5 mph - N/A   Clear
4:47 PM 59.0 °F 48.0 °F 67% 30.12 in 10.0 mi West 4.6 mph - N/A   Clear
5:47 PM 57.0 °F 46.9 °F 69% 30.15 in 10.0 mi West 4.6 mph - N/A   Clear
6:47 PM 55.9 °F 48.0 °F 75% 30.17 in 10.0 mi Calm Calm - N/A   Clear
7:47 PM 54.0 °F 48.0 °F 80% 30.19 in 10.0 mi Calm Calm - N/A   Scattered Clouds
8:47 PM 55.0 °F 48.9 °F 80% 30.19 in 10.0 mi Calm Calm - N/A   Overcast
9:47 PM 54.0 °F 48.9 °F 83% 30.21 in 10.0 mi Calm Calm - N/A   Partly Cloudy
10:47 PM 54.0 °F 48.0 °F 80% 30.21 in 10.0 mi Calm Calm - N/A   Overcast
11:47 PM 55.0 °F 48.0 °F 77% 30.22 in 10.0 mi Calm Calm - N/A   Overcast